Overview Statistics Trail Chart Weather Telemetry Raw packets
 

This is the latest recevied weather packets stored in our database for station/object 4S6DRJ-13. If no packets are shown the sender has not sent any weather packets the latest 10 day(s).

<< 264 265 266 267 268 269 270 >>
Time Temp. Humidity Pressure Rain* Wind** Luminosity Snow
1788080215 30.56° C 69% 1007.8 hPa 0 mm 1.34 m/s, 274° 338 W/m² -
1788080146 30.56° C 69% 1007.9 hPa 0 mm 2.24 m/s, 220° 401 W/m² -
1788080085 30.56° C 70% 1008 hPa 0 mm 1.79 m/s, 156° 279 W/m² -
1788080024 30.56° C 71% 1007.9 hPa 0 mm 0.45 m/s, 230° 692 W/m² -
1788079964 30.56° C 70% 1008 hPa 0 mm 1.34 m/s, 279° 435 W/m² -
1788079903 30.56° C 70% 1007.9 hPa 0 mm 2.68 m/s, 241° 426 W/m² -
1788079842 30.56° C 69% 1007.9 hPa 0 mm 2.24 m/s, 324° 678 W/m² -
1788079780 31.11° C 70% 1008 hPa 0 mm 1.79 m/s, 289° 392 W/m² -
1788079719 31.11° C 69% 1007.9 hPa 0 mm 1.34 m/s, 190° 299 W/m² -
1788079658 31.11° C 69% 1008.1 hPa 0 mm 2.24 m/s, 197° 329 W/m² -
1788079598 31.11° C 70% 1008 hPa 0 mm 1.34 m/s, 169° 1114 W/m² -
1788079536 31.11° C 69% 1008 hPa 0 mm 3.13 m/s, 210° 682 W/m² -
1788079475 30.56° C 69% 1007.9 hPa 0 mm 1.79 m/s, 251° 391 W/m² -
1788079414 30.56° C 70% 1008.2 hPa 0 mm 1.79 m/s, 254° 366 W/m² -
1788079353 30.56° C 70% 1008 hPa 0 mm 2.24 m/s, 317° 1101 W/m² -
1788079292 30.56° C 69% 1008.1 hPa 0 mm 1.79 m/s, 243° 1104 W/m² -
1788079232 31.11° C 69% 1008.2 hPa 0 mm 2.68 m/s, 219° 1122 W/m² -
1788079170 31.11° C 68% 1008.2 hPa 0 mm 4.02 m/s, 220° 487 W/m² -
1788079109 31.11° C 68% 1008.1 hPa 0 mm 1.79 m/s, 243° 602 W/m² -
1788079048 31.11° C 68% 1008.2 hPa 0 mm 1.34 m/s, 333° 1101 W/m² -
1788078987 31.11° C 68% 1008.2 hPa 0 mm 1.79 m/s, 248° 728 W/m² -
1788078926 31.11° C 68% 1008.1 hPa 0 mm 2.68 m/s, 0° 551 W/m² -
1788078865 31.11° C 69% 1008.3 hPa 0 mm 1.79 m/s, 317° 488 W/m² -
1788078804 31.11° C 70% 1008.2 hPa 0 mm 0.89 m/s, 249° 829 W/m² -
1788078742 31.11° C 69% 1008.1 hPa 0 mm 0.89 m/s, 317° 770 W/m² -

* Rain latest hour (hover to see other rain measurements)
** Current wind speed in m/s (hover to see current wind gust speed)